Location: Devargunta
(16.7631°N, 80.9077°E)
Time: 17:15:38
(UTC+00:00)

Cosmos 540 Rocket - Pass Details

Date: 01 December 2021
Orbit: 739 x 754 km, 74.1° (Epoch: 17 January)

Event Time Altitude Azimuth Distance (km) Brightness Sun altitude
Exits shadow 23:59:15 10° 326° (NW) 2,282 5.5 -12.0°
Reaches altitude 10° 23:59:18 10° 326° (NW) 2,261 5.5 -12.0°
Maximum altitude 00:03:59 37° 259° (W) 1,153 4.0 -10.9°
Drops below altitude 10° 00:08:41 10° 193° (SSW) 2,264 6.0 -9.9°
Sets 00:11:12 0° 185° (S) 3,189 6.9 -9.3°
